Location: Brookview Estates
(36.0476°N, 86.6931°W)
Time: 11:09:51
(UTC+00:00)

SL-4 R/B - Pass Details

Date: 30 March 2020
Orbit: 428 x 666 km, 51.6° (Epoch: 25 May)

Event Time Altitude Azimuth Distance (km) Brightness Sun altitude
Exits shadow 10:54:14 - 304° (NW) 2,374 4.8 -9.0°
Reaches altitude 10° 10:55:42 10° 300° (WNW) 1,804 4.2 -8.7°
Maximum altitude 10:59:41 49° 226° (SW) 742 2.3 -7.9°
Drops below altitude 10° 11:03:58 10° 151° (SSE) 1,939 5.1 -7.1°
Sets 11:06:23 0° 146° (SE) 2,876 6.0 -6.6°
